TimeCDT,TemperatureF,Dew PointF,Humidity,Sea Level PressureIn,VisibilityMPH,Wind Direction,Wind SpeedMPH,Gust SpeedMPH,PrecipitationIn,Events,Conditions,WindDirDegrees,DateUTC
12:35 AM,73.4,71.6,94,29.99,9.0,SSE,9.2,-,N/A,,Overcast,150,2013-04-17 05:35:00
12:46 AM,73.4,71.6,94,29.99,9.0,SE,10.4,-,N/A,,Overcast,140,2013-04-17 05:46:00
12:53 AM,73.9,72.0,93,29.99,9.0,SE,9.2,-,N/A,,Overcast,140,2013-04-17 05:53:00
1:53 AM,73.9,72.0,93,29.99,9.0,SSE,9.2,-,N/A,,Overcast,150,2013-04-17 06:53:00
2:53 AM,73.9,72.0,93,29.99,8.0,SE,5.8,-,N/A,,Overcast,140,2013-04-17 07:53:00
3:53 AM,73.9,72.0,93,29.99,9.0,SE,6.9,-,N/A,,Overcast,130,2013-04-17 08:53:00
4:53 AM,73.9,71.1,91,29.99,9.0,SE,5.8,-,N/A,,Overcast,130,2013-04-17 09:53:00
5:53 AM,73.9,71.1,91,30.00,9.0,ESE,6.9,-,N/A,,Overcast,120,2013-04-17 10:53:00
6:20 AM,73.4,71.6,94,29.99,9.0,ESE,8.1,-,N/A,,Overcast,120,2013-04-17 11:20:00
6:40 AM,73.4,71.6,94,30.00,9.0,SE,4.6,-,N/A,,Overcast,130,2013-04-17 11:40:00
6:53 AM,73.0,71.1,93,30.01,8.0,ESE,4.6,-,N/A,,Overcast,120,2013-04-17 11:53:00
7:24 AM,73.4,71.6,94,30.01,7.0,SE,6.9,-,N/A,,Scattered Clouds,130,2013-04-17 12:24:00
7:53 AM,73.9,71.1,91,30.02,8.0,ESE,9.2,-,N/A,,Mostly Cloudy,120,2013-04-17 12:53:00
8:07 AM,73.4,71.6,94,30.01,8.0,SE,8.1,-,N/A,,Overcast,130,2013-04-17 13:07:00
8:16 AM,73.4,71.6,94,30.01,8.0,ESE,8.1,-,N/A,,Overcast,120,2013-04-17 13:16:00
8:17 AM,73.4,71.6,94,30.01,8.0,ESE,9.2,-,N/A,,Overcast,120,2013-04-17 13:17:00
8:39 AM,75.2,71.6,89,30.01,8.0,ESE,6.9,-,N/A,,Overcast,110,2013-04-17 13:39:00
9:30 AM,75.2,71.6,89,30.02,8.0,SE,8.1,-,N/A,,Overcast,130,2013-04-17 14:30:00
9:53 AM,77.0,71.1,82,30.03,9.0,SE,11.5,-,N/A,,Mostly Cloudy,130,2013-04-17 14:53:00
10:53 AM,80.1,71.1,74,30.02,10.0,ESE,15.0,19.6,N/A,,Mostly Cloudy,120,2013-04-17 15:53:00
11:34 AM,82.4,71.6,70,30.00,10.0,SE,15.0,-,N/A,,Mostly Cloudy,140,2013-04-17 16:34:00
11:53 AM,82.9,71.1,67,29.99,10.0,SE,17.3,21.9,N/A,,Mostly Cloudy,130,2013-04-17 16:53:00
12:53 PM,84.0,71.1,65,29.97,10.0,SSE,10.4,20.7,N/A,,Mostly Cloudy,150,2013-04-17 17:53:00
1:53 PM,84.0,70.0,63,29.96,10.0,SSE,13.8,23.0,N/A,,Mostly Cloudy,160,2013-04-17 18:53:00
2:53 PM,86.0,69.1,57,29.94,10.0,SSE,12.7,23.0,N/A,,Scattered Clouds,160,2013-04-17 19:53:00
3:53 PM,86.0,69.1,57,29.91,10.0,South,17.3,24.2,N/A,,Partly Cloudy,170,2013-04-17 20:53:00
4:53 PM,84.9,68.0,57,29.88,10.0,SSE,17.3,32.2,N/A,,Scattered Clouds,160,2013-04-17 21:53:00
5:04 PM,84.2,68.0,58,29.87,10.0,SSE,19.6,25.3,N/A,,Mostly Cloudy,150,2013-04-17 22:04:00
5:53 PM,82.9,68.0,60,29.87,10.0,South,12.7,24.2,N/A,,Clear,170,2013-04-17 22:53:00
6:53 PM,82.0,69.1,65,29.86,10.0,South,11.5,-,N/A,,Clear,170,2013-04-17 23:53:00
7:53 PM,79.0,70.0,74,29.85,10.0,SSE,8.1,-,N/A,,Partly Cloudy,160,2013-04-18 00:53:00
8:53 PM,77.0,70.0,79,29.86,10.0,SSE,11.5,-,N/A,,Clear,160,2013-04-18 01:53:00
9:53 PM,75.9,71.1,85,29.87,10.0,SSE,10.4,-,N/A,,Clear,150,2013-04-18 02:53:00
10:53 PM,75.9,71.1,85,29.86,10.0,SSE,9.2,-,N/A,,Mostly Cloudy,160,2013-04-18 03:53:00
11:53 PM,75.9,70.0,82,29.86,10.0,SSE,10.4,-,N/A,,Overcast,160,2013-04-18 04:53:00